Date,TemperatureHighF,TemperatureAvgF,TemperatureLowF,DewpointHighF,DewpointAvgF,DewpointLowF,HumidityHigh,HumidityAvg,HumidityLow,PressureMaxIn,PressureMinIn,WindSpeedMaxMPH,WindSpeedAvgMPH,GustSpeedMaxMPH,PrecipitationSumIn
2014-1-1,41.1,31.3,21.5,27.8,22.7,15.6,83,71,53,30.39,30.14,10,1,12,0.00
2014-1-2,33.5,29.7,20.2,28.9,25.5,17.6,92,85,71,30.15,29.58,19,3,19,0.00
2014-1-3,20.1,15.1,7.8,17.6,7.1,0.7,92,71,53,30.47,29.58,23,5,23,0.09
2014-1-4,27.7,16.7,5.2,18.1,9.4,0.4,89,73,56,30.52,30.24,14,1,14,0.01
2014-1-5,47.2,31.2,17.2,46.6,29.4,14.3,100,93,88,30.27,29.66,7,1,7,0.04
2014-1-6,55.6,38.9,10.0,55.3,32.2,-6.7,99,78,46,29.94,29.39,26,5,28,0.34
2014-1-7,12.3,7.8,2.0,-0.6,-6.4,-12.3,61,52,46,30.42,29.94,25,5,26,0.00
2014-1-8,25.2,17.1,7.2,12.8,4.5,-1.9,74,58,44,30.59,30.42,10,1,10,0.00
2014-1-9,31.7,25.6,21.3,17.9,15.4,12.4,79,65,55,30.65,30.48,11,1,11,0.00
2014-1-10,36.6,32.8,27.5,35.6,29.9,20.9,96,89,76,30.54,30.11,5,1,5,0.47
2014-1-11,58.4,49.6,36.6,58.1,49.1,35.6,100,98,96,30.11,29.32,13,2,16,0.71
2014-1-12,49.8,41.1,30.6,49.0,33.9,27.9,97,76,62,30.09,29.44,15,2,21,0.00
2014-1-13,56.1,41.4,28.1,42.0,34.4,26.3,95,77,56,30.10,29.84,14,2,14,0.00
2014-1-14,46.9,44.3,37.3,45.8,42.2,36.0,97,92,77,29.86,29.66,8,1,11,0.26
2014-1-15,44.5,38.0,32.3,44.0,36.9,31.3,98,96,88,29.96,29.85,15,1,15,0.01
2014-1-16,38.6,33.3,26.0,35.0,26.6,21.4,91,77,57,29.97,29.83,13,2,13,0.01
2014-1-17,43.3,33.2,24.3,33.1,27.7,21.3,95,81,65,29.96,29.80,9,1,9,0.00
2014-1-18,37.6,30.5,21.2,32.9,21.7,11.4,93,70,54,29.94,29.70,20,4,20,0.00
2014-1-19,40.3,30.5,20.1,26.7,20.0,12.0,77,65,55,29.90,29.67,15,2,15,0.00
2014-1-20,38.9,34.9,33.7,29.9,27.5,25.8,84,74,59,29.68,29.63,11,2,11,0.00
2014-1-21,35.6,22.9,12.8,25.2,17.3,8.1,92,80,60,29.92,29.76,18,4,18,0.00
2014-1-22,16.1,9.7,3.0,8.3,-0.6,-5.9,81,63,52,30.03,29.80,23,5,23,0.00
2014-1-23,23.2,14.7,5.0,10.9,5.1,0.2,90,66,53,30.33,30.03,18,2,18,0.03
2014-1-24,19.3,14.1,8.1,7.2,2.6,-0.1,73,60,48,30.44,30.05,21,3,21,0.00
2014-1-25,26.3,21.7,18.2,21.8,14.2,7.0,95,73,55,30.05,29.44,26,5,26,0.00
2014-1-26,28.2,22.7,12.3,22.4,12.9,5.4,89,67,46,29.92,29.54,20,2,20,0.07
2014-1-27,46.1,30.8,19.3,33.6,19.2,2.8,86,63,41,30.12,29.60,24,3,24,0.20
2014-1-28,19.3,14.3,10.6,3.3,-0.6,-4.2,65,51,44,30.40,30.12,12,3,18,0.01
2014-1-29,21.0,14.6,10.0,7.4,2.7,-3.0,83,60,43,30.33,30.14,18,2,18,0.01
2014-1-30,27.4,17.5,8.0,12.4,6.6,1.0,82,63,44,30.47,30.17,9,1,9,0.02
2014-1-31,45.2,30.5,17.0,25.7,20.5,12.2,92,68,38,30.22,30.09,12,1,12,0.02